OpenBCM V1.13 (Linux)

Packet Radio Mailbox

DB0FHN

[JN59NK Nuernberg]

 Login: GUEST





  
CX2SA  > KEPS     26.06.26 02:45l 315 Lines 14995 Bytes #999 (0) @ AMSAT
BID : ORB26177.1
Read: OE5RCO GUEST DJ6UX
Subj: 2Line Orbital Elements 26177.AMSAT
Path: DB0FHN<DB0RKB<DK0WUE<PD0LPM<PI8ZTM<CX2SA
Sent: 260626/0024Z @:CX2SA.SAL.URY.SOAM #:1149 [Salto] FBB7.00e $:ORB26177.1
From: CX2SA@CX2SA.SAL.URY.SOAM
To  : KEPS@AMSAT


QST de W1STR

AMSAT Orbital Elements for Amateur Satellites in TLE Format
>From Orbital Analysis Office
New England Sci-Tech STEM Education Center
Natick MA June 26, 2026
To all radio amateurs


These element sets describe the orbits of various satellites
in use by the amateur radio community. For details see:
www.amsat.org/keplerian-elements-formats/

A daily update of element sets is available at:
www.amsat.org/tle/daily-bulletin.txt
or without bulletin text:
www.amsat.org/tle/dailytle.txt


AO-07
1 07530U 74089B   26176.54232720 -.00000032  00000-0  90872-4 0  9996
2 07530 101.9899 189.8760 0012643 114.6593  39.6394 12.53698202361561
UO-11
1 14781U 84021B   26176.81271640  .00001184  00000-0  12598-3 0  9999
2 14781  97.8061 142.2911 0008383 145.7665 214.4095 14.90803454258413
LO-19
1 20442U 90005G   26176.62397348  .00000110  00000-0  55908-4 0  9993
2 20442  98.8847 198.6620 0011613 176.0006 184.1273 14.34125496903605
AO-27
1 22825U 93061C   26176.67042693  .00000083  00000-0  48680-4 0  9998
2 22825  98.6877 244.0808 0009517  77.9377 282.2872 14.30944337708211
FO-29
1 24278U 96046B   26176.59171727 -.00000016  00000-0  16806-4 0  9992
2 24278  98.5234  24.3122 0350909  74.6874 289.2760 13.53274737474306
GO-32
1 25397U 98043D   26176.84476045  .00000060  00000-0  46016-4 0  9997
2 25397  99.0071 169.8219 0001487 146.5659 213.5613 14.24429931452568
ISS
1 25544U 98067A   26176.70356236  .00009385  00000-0  17567-3 0  9998
2 25544  51.6325 257.9368 0004376 231.2480 128.8118 15.49425151573072
NO-44
1 26931U 01043C   26176.54075369  .00000092  00000-0  65276-4 0  9991
2 26931  67.0493 222.6659 0006045 265.0892  94.9520 14.31958602291641
SO-50
1 27607U 02058C   26176.85402013  .00000895  00000-0  12290-3 0  9991
2 27607  64.5519 102.1706 0075054 260.8502  98.4108 14.83063806265748
CO-55
1 27844U 03031E   26176.53717468  .00000284  00000-0  14177-3 0  9992
2 27844  98.6736 184.9911 0010043 154.4508 205.7169 14.24340467192865
RS-22
1 27939U 03042A   26176.84618943  .00001424  00000-0  22748-3 0  9991
2 27939  98.3475   1.4498 0009995 238.5754 234.7065 14.73482495216823
CO-65
1 32785U 08021C   26176.86635661  .00005488  00000-0  34600-3 0  9990
2 32785  97.8275 158.4656 0008896  12.7911 347.3541 15.09530347986504
CO-66
1 32791U 08021J   26176.55652961  .00022634  00000-0  71096-3 0  9997
2 32791  97.7517 174.8550 0000373 231.0753 129.0455 15.33017433988577
RS-30
1 32953U 08025A   26176.87057042  .00000046  00000-0  25961-3 0  9998
2 32953  82.5047 350.0380 0018595 293.9096  66.0035 12.43179877820778
SRMSAT
1 37841U 11058D   26176.55515866  .00000372  00000-0  58142-4 0  9997
2 37841  19.9735   8.8199 0011710 296.2835  90.0618 14.11577173759001
ZACUBE-1
1 39417U 13066B   26176.87242852  .00003451  00000-0  26870-3 0  9999
2 39417  97.8048 139.2539 0041996 218.0640 141.7615 15.01232202682036
Delfi-N3xt
1 39428U 13066N   26176.67759412  .00006162  00000-0  53644-3 0  9995
2 39428  97.8343  96.9812 0074245 176.9939 183.1743 14.95160478675890
GOMX-1
1 39430U 13066Q   26176.83371019  .00001672  00000-0  25537-3 0  9990
2 39430  97.6487  16.7507 0129859  50.1209 311.1332 14.69486911671185
LO-74
1 39440U 13066AA  26176.83815360  .00004524  00000-0  41819-3 0  9993
2 39440  97.8903 125.8528 0057564   0.5259 359.6011 14.93829236678280
AO-73
1 39444U 13066AE  26176.87279233  .00008216  00000-0  50757-3 0  9997
2 39444  97.8271 148.5000 0036539 171.4630 188.7228 15.09583656680970
DTUSAT-2
1 40030U 14033W   26176.49356363  .00007869  00000-0  42368-3 0  9995
2 40030  98.0865 174.7483 0007465 194.0567 166.0457 15.15112737653942
LILACSAT-2
1 40908U 15049K   26176.84985041  .00020233  00000-0  34078-3 0  9996
2 40908  97.4640 214.0215 0006309 206.2175 153.8759 15.51716024597099
Horyu-4
1 41340U 16012D   26176.85607730  .01047123  58042-3  13388-2 0  9995
2 41340  30.9835  14.9564 0008742 324.3130  35.6949 16.06185976572209
Lapan A3
1 41603U 16040E   26176.80659527  .00004153  00000-0  13183-3 0  9991
2 41603  97.1488 172.6689 0009787 355.9027   4.2135 15.33156778556135
CAS-2T
1 41847U 16066G   26176.69031690  .00001601  00000-0  23081-3 0  9994
2 41847  98.3821 252.3295 0342905 103.7696 260.1902 14.44720464506029
TechnoSat
1 42829U 17042E   26176.69320939  .00003235  00000-0  23119-3 0  9994
2 42829  97.4294 334.0282 0019327  67.8246 292.5029 15.05009734487988
AO-91
1 43017U 17073E   26176.60840683  .00008156  00000-0  35687-3 0  9992
2 43017  97.4699  43.6511 0148630 299.9037  58.7499 15.12826697466669
S-Net D
1 43186U 18014G   26176.70864373  .00005508  00000-0  28398-3 0  9997
2 43186  97.5359  81.4457 0008026   2.7600 357.3675 15.16746562460056
S-Net B
1 43187U 18014H   26176.72026309  .00005459  00000-0  28172-3 0  9994
2 43187  97.5364  81.4444 0008454 356.9768   3.1412 15.16717275460057
S-Net A
1 43188U 18014J   26176.70747477  .00005654  00000-0  29135-3 0  9996
2 43188  97.5375  81.6419 0008381 358.0843   2.0356 15.16755198460051
S-Net C
1 43189U 18014K   26176.72418220  .00005559  00000-0  28684-3 0  9992
2 43189  97.5389  81.7349 0009468 348.6118  11.4899 15.16709603458601
Ten-Koh
1 43677U 18084G   26176.77867122  .00001768  00000-0  13633-3 0  9991
2 43677  98.0760   9.5052 0011331  89.8867 270.3655 15.02969282417458
PO-101
1 43678U 18084H   26176.83919052  .00002550  00000-0  20738-3 0  9993
2 43678  98.1205  13.4248 0012987 142.9555 217.2566 15.00488201417511
QO-100
1 43700U 18090A   26176.67268748  .00000155  00000-0  00000+0 0  9992
2 43700   0.0185 341.0996 0002207 148.5722  52.1049  1.00274106 27766
MinXSS-2
1 43758U 18099A   26176.17654959  .00044561  00000-0  86792-3 0  9997
2 43758  97.4537 252.6971 0007305 224.7888 135.2772 15.47398499415365
AO-95
1 43770U 18099N   26176.66330514  .00013967  00000-0  53097-3 0  9991
2 43770  97.4386 236.8787 0007199 324.2566  35.8190 15.26877140414517
SNUSat 2
1 43782U 18099AA  26176.68352692  .00010178  00000-0  44872-3 0  9999
2 43782  97.4059 229.9364 0008599 263.0441  96.9817 15.21956165414321
SnugLite
1 43784U 18099AC  26176.66115416  .00014067  00000-0  52753-3 0  9998
2 43784  97.3870 230.8579 0001592 227.5122 132.5983 15.27349256414615
ITASat 1
1 43786U 18099AE  26176.71656380  .00007572  00000-0  36279-3 0  9994
2 43786  97.4030 228.0580 0011253 328.7012  31.3551 15.19154130414202
EAGLET 1
1 43790U 18099AJ  26176.65066205  .00004206  00000-0  24168-3 0  9998
2 43790  97.4230 226.0951 0009850 323.2160  36.8394 15.12997545413610
ESEO
1 43792U 18099AL  26176.62832148  .00001421  00000-0  10619-3 0  9996
2 43792  97.3976 213.6555 0010343 310.6825  49.3502 15.04274299413072
JO-97
1 43803U 18099AX  26176.70757947  .00021360  00000-0  65238-3 0  9992
2 43803  97.4133 239.5721 0004971 224.1915 135.8931 15.33907145414930
Suomi 100
1 43804U 18099AY  26176.71681007  .00016024  00000-0  57746-3 0  9993
2 43804  97.4188 237.0786 0008707 243.4094 116.6254 15.28600486414722
ISAT
1 43879U 18111D   26176.34154341  .00118561  00000-0  11162-2 0  9995
2 43879  97.5866 112.1979 0003075 166.3007 193.8337 15.66715187412448
UWE-4
1 43880U 18111E   26176.75685352  .00040469  00000-0  81038-3 0  9994
2 43880  97.5842 105.5453 0004388 298.2824  61.7982 15.46632165412101
Sparrow
1 43881U 18111F   26176.83167222  .00202883  00000-0  12223-2 0  9994
2 43881  97.6097 118.5083 0004909 129.1594 231.0108 15.77097831412733
Prox-1
1 44339U 19036A   26176.69227689  .00016968  00000-0  16525-2 0  9994
2 44339  23.9955  57.4283 0005790 133.3757 226.7225 14.90807120374740
Taurus 1
1 44530U 19059C   26176.87481841  .00010811  00000-0  17210-2 0  9997
2 44530  98.6416 342.2427 0007246 284.5915  75.4486 14.72182117359925
TO-108
1 44881U 19093C   26176.86266834  .00000113  00000-0  18830-4 0  9991
2 44881  97.7532 248.8834 0014973  61.0477 299.2238 14.86529062352701
RS-44
1 44909U 19096E   26176.83967086  .00000022  00000-0  34149-4 0  9999
2 44909  82.5225 333.9544 0218450 124.0164 238.1898 12.79748974303453
SALSAT
1 46495U 20068K   26176.71389502  .00008822  00000-0  30719-3 0  9994
2 46495  97.8851 180.2981 0007800 271.7296  88.3050 15.29911798316664
CSS (TIANHE-1)
1 48274U 21035A   26176.74214352  .00027491  00000-0  31832-3 0  9999
2 48274  41.4689 269.9263 0007837 150.3803 209.7481 15.61175416294509
CUTE
1 49263U 21088D   26176.53481005  .00325284  44378-4  78082-3 0  9993
2 49263  97.4159 276.6548 0007173 219.4348 140.6407 15.96456826263889
TeikyoSat 4
1 49396U 21102B   26176.67182964  .00001678  00000-0  10832-3 0  9991
2 49396  97.3665 205.8253 0010349 262.8294  97.1759 15.09536099254000
Z-Sat
1 49399U 21102E   26176.83164188  .00005055  00000-0  24880-3 0  9991
2 49399  97.3328 211.8922 0015597 211.8759 148.1532 15.18322872254759
KOSEN 1
1 49402U 21102H   26176.59568135  .00009634  00000-0  36574-3 0  9999
2 49402  97.3188 218.5895 0014111 170.8305 189.3195 15.26944089255306
HO-113
1 50466U 21131B   26176.87082764  .00000465  00000-0  15726-3 0  9992
2 50466  98.4981 269.2136 0005361  76.5332 283.6454 14.41364504236366
SNUGLITE 2
1 52899U 22065F   26176.84562716  .00000882  00000-0  17603-3 0  9997
2 52899  98.2210 321.6610 0007398   7.1773 352.9534 14.64361972212265
UmKA 1 (RS40S)
1 57172U 23091G   26176.84455604  .00007431  00000-0  33819-3 0  9997
2 57172  97.5052 235.5085 0014303  90.9703 269.3171 15.20910648165321
CubeBel-2 (EU11S)
1 57175U 23091K   26176.82110072  .00015255  00000-0  53704-3 0  9993
2 57175  97.5054 240.1155 0011157  88.4989 271.7529 15.29356206165628
RS-38S
1 57189U 23091Z   26176.81125880  .00020243  00000-0  57332-3 0  9994
2 57189  97.5094 246.4700 0007641  51.2377 308.9548 15.36282701166018
